[[{"header":{"parameterUnit":"m.s-1","parameterCategory":1,"la1":30.2991,"la2":30.254,"lo1":-89.0895,"lo2":-89.0444,"dy":0.0017,"dx":0.0017,"nx":28,"ny":28,"refTime":"2024-07-06T03:00:00:Z","depth":0,"parameterNumber":2,"parameterNumberName":"U-component_of_WINDS"},"data":[0,0,0,0,0,0,0,0,0,0,0,0,0,0,0,0,0,0,0,0,0,0,0,0,0,0,0,0,0,0,0,0,0,0,0,0,0,0,0,0,0,0,0,0,0,0,0,0,0,0,0,0,0,0,0,0,0,0,1.3521,1.352,0,1.3433,1.3432,1.3431,1.3328,1.3326,1.3324,1.3323,1.3238,1.3238,1.3237,0,0,0,0,0,0,0,0,0,0,0,0,0,1.3604,1.3603,1.3521,1.352,1.3518,1.3433,1.3432,1.3431,1.3328,1.3326,1.3324,1.3322,1.3239,1.3238,1.3237,0,0,0,0,0,0,0,0,0,0,0,0,0,1.3548,1.3603,1.3521,1.3457,1.345,1.3433,1.3432,1.3431,1.3328,1.3326,1.3324,1.3321,1.3239,1.3238,1.3237,1.3278,0,0,1.3233,1.3233,0,0,0,0,0,0,0,0,1.3551,1.3545,1.3467,1.3461,1.3454,1.3389,1.343,1.3379,1.3329,1.3375,1.3323,1.332,1.3291,1.3285,1.3274,1.3274,1.327,1.3233,1.3232,1.3232,1.3232,0,0,0,0,0,0,0,1.3555,1.3548,1.3486,1.3466,1.3458,1.3434,1.3423,1.342,1.3347,1.3371,1.3363,1.3354,1.3287,1.3275,1.3271,1.3269,1.3233,1.3232,1.3231,1.3231,1.3299,1.3302,0,0,0,0,0,0,1.3568,1.3552,1.3489,1.3483,1.3497,1.3435,1.3423,1.3412,1.3347,1.3335,1.3356,1.3349,1.3279,1.3273,1.3268,1.3312,1.3232,1.3231,1.323,1.3297,1.33,1.3303,0,0,0,0,0,0,1.357,1.3563,1.3492,1.3516,1.3505,1.3436,1.3425,1.3412,1.34,1.3336,1.3323,1.3357,1.3276,1.327,1.3276,1.3308,1.323,1.3229,1.3294,1.3298,1.3301,1.3401,0,0,0,0,0,0,1.3573,1.3565,1.3578,1.3517,1.3504,1.35,1.3427,1.3412,1.3398,1.3389,1.3334,1.3323,1.3274,1.3278,1.3275,1.3305,1.3228,1.3291,1.3296,1.33,1.3395,1.3408,1.3419,0,0,0,0,0,1.3576,1.361,1.3579,1.3572,1.3519,1.3502,1.3495,1.3437,1.3401,1.3415,1.3374,1.3324,1.3305,1.328,1.3275,1.3305,1.3288,1.3294,1.33,1.3389,1.3405,1.3419,0,0,0,0,0,0,1.3679,1.3601,1.3566,1.3581,1.3549,1.3485,1.35,1.3456,1.3435,1.3427,1.3357,1.3346,1.3361,1.3334,1.3307,1.3342,1.329,1.3295,1.336,1.3374,1.3386,1.3393,1.3227,0,0,0,0,0,1.3703,1.3694,1.3628,1.3647,1.3633,1.357,1.3561,1.3519,1.3483,1.347,1.3429,1.3398,1.3385,1.3378,1.3363,1.3391,1.3378,1.3409,1.3422,1.3432,1.3437,1.3451,1.3465,1.3321,1.3321,1.3321,0,0,1.3753,1.371,1.3709,1.3667,1.3637,1.3632,1.3559,1.3556,1.3552,1.347,1.3473,1.3443,1.3404,1.3422,1.3427,1.3399,1.3474,1.3439,1.3448,1.3447,1.3459,1.3472,1.3484,1.3325,1.3324,1.3324,0,0,1.3841,1.3807,1.382,1.3792,1.3748,1.3706,1.3709,1.3652,1.3628,1.363,1.3569,1.3564,1.3543,1.3518,1.3503,1.3584,1.3538,1.3581,1.3645,1.366,1.3671,1.3681,1.3711,1.3722,1.3586,1.3587,1.3587,0,1.391,1.3897,1.3833,1.3834,1.3818,1.3743,1.3757,1.3733,1.3687,1.3679,1.3648,1.362,1.3589,1.36,1.362,1.361,1.3613,1.3587,1.3674,1.3683,1.3692,1.3719,1.3731,1.3592,1.3592,1.3591,1.3591,0,1.3984,1.3976,1.3993,1.3948,1.3935,1.3942,1.3882,1.3876,1.3836,1.3798,1.3802,1.3762,1.3737,1.3737,1.3698,1.3744,1.3728,1.3687,1.3632,1.3712,1.3737,1.3747,1.36,1.3598,1.3596,1.3595,0,0,1.4133,1.4054,1.4061,1.4041,1.3987,1.3981,1.3987,1.3961,1.3958,1.393,1.3934,1.3918,1.388,1.3863,1.3821,1.3834,1.3902,1.3791,1.3789,1.3814,1.3951,1.3983,1.3996,1.3872,1.3874,1.3875,1.3955,0,1.4212,1.4214,1.4158,1.4177,1.417,1.4099,1.4104,1.4073,1.4039,1.403,1.3992,1.3982,1.3932,1.3921,1.3931,1.3892,1.3929,1.3885,1.3876,1.3877,1.3888,1.4009,1.4042,1.4119,1.3964,1.3966,1.3967,0,1.4304,1.4279,1.4298,1.4244,1.4239,1.4245,1.4218,1.4209,1.4174,1.4148,1.4129,1.4081,1.4085,1.4034,1.4039,1.401,1.4004,1.3984,1.3986,1.3983,1.3927,1.401,1.4142,1.4154,1.3982,1.398,1.3979,0,1.4412,1.4384,1.4391,1.4376,1.4314,1.4319,1.4294,1.4256,1.4245,1.4222,1.4215,1.4194,1.4182,1.4168,1.4117,1.4084,1.4129,1.4072,1.4108,1.411,1.4121,1.4121,1.4254,1.4117,1.4116,1.4116,1.4116,0,1.4506,1.452,1.4439,1.4443,1.4458,1.4394,1.4411,1.4379,1.4346,1.4345,1.4283,1.4283,1.4215,1.4209,1.4169,1.418,1.4175,1.4156,1.4145,1.4161,1.4164,1.4156,1.4149,1.4119,1.4118,1.4118,1.4117,0,1.4629,1.4574,1.4578,1.4519,1.4505,1.4518,1.4469,1.4472,1.4434,1.4433,1.4429,1.437,1.436,1.4307,1.4284,1.4258,1.4283,1.4261,1.4295,1.4288,1.4327,1.4324,1.446,1.4475,1.4328,1.4329,1.4331,0,1.4692,1.4701,1.4643,1.4637,1.4615,1.4606,1.4594,1.4533,1.4524,1.4485,1.4493,1.4477,1.4461,1.4448,1.4404,1.4387,1.4365,1.4414,1.4362,1.4379,1.4367,1.4367,1.4368,1.4425,1.4427,1.4429,1.443,0,1.4811,1.4784,1.4768,1.4745,1.4732,1.4711,1.4686,1.4685,1.4617,1.461,1.4598,1.4586,1.4563,1.4548,1.4524,1.45,1.4455,1.4447,1.4454,1.4471,1.449,1.4481,1.4325,1.4444,1.4442,1.4441,1.4441,1.444,1.4906,1.4911,1.4871,1.4857,1.4832,1.481,1.481,1.4772,1.476,1.4736,1.4701,1.4694,1.466,1.4623,1.4603,1.4598,1.4571,1.4582,1.4585,1.4589,1.4597,1.4491,1.4593,1.4593,1.4592,1.4592,1.4591,0,1.5022,1.4993,1.498,1.4947,1.4936,1.4893,1.4864,1.4858,1.4852,1.4824,1.4809,1.4797,1.4783,1.4739,1.4721,1.4726,1.4705,1.4723,1.4722,1.4718,1.4621,1.4617,1.4741,1.4741,1.4741,1.4741,1.4741,1.4741,1.5081,1.5087,1.5056,1.5051,1.5022,1.5014,1.5001,1.4982,1.4959,1.4947,1.4935,1.4905,1.4871,1.4851,1.4837,1.4825,1.4822,1.4847,1.4828,1.4739,1.4725,1.4711,1.4706,1.4847,1.4847,1.4925,1.4926,1.4926]},{"header":{"parameterUnit":"m.s-1","parameterCategory":1,"la1":30.2991,"la2":30.254,"lo1":-89.0895,"lo2":-89.0444,"dy":0.0017,"dx":0.0017,"nx":28,"ny":28,"refTime":"2024-07-06T03:00:00:Z","depth":0,"parameterNumber":3,"parameterNumberName":"V-component_of_WINDS"},"data":[0,0,0,0,0,0,0,0,0,0,0,0,0,0,0,0,0,0,0,0,0,0,0,0,0,0,0,0,0,0,0,0,0,0,0,0,0,0,0,0,0,0,0,0,0,0,0,0,0,0,0,0,0,0,0,0,0,0,-0.9001,-0.9001,0,-0.903,-0.903,-0.903,-0.9017,-0.9016,-0.9016,-0.9015,-0.9047,-0.9048,-0.905,0,0,0,0,0,0,0,0,0,0,0,0,0,-0.8937,-0.8938,-0.9001,-0.9001,-0.9002,-0.903,-0.903,-0.9031,-0.9017,-0.9016,-0.9015,-0.9015,-0.9046,-0.9048,-0.905,0,0,0,0,0,0,0,0,0,0,0,0,0,-0.8965,-0.8938,-0.9001,-0.8998,-0.8998,-0.903,-0.903,-0.9031,-0.9017,-0.9016,-0.9015,-0.9014,-0.9045,-0.9048,-0.905,-0.9086,0,0,-0.9057,-0.9058,0,0,0,0,0,0,0,0,-0.8963,-0.8967,-0.8998,-0.8999,-0.8999,-0.9019,-0.9019,-0.9049,-0.9018,-0.901,-0.9015,-0.9014,-0.9038,-0.9041,-0.9049,-0.9088,-0.9089,-0.9057,-0.9058,-0.9059,-0.906,0,0,0,0,0,0,0,-0.8962,-0.8966,-0.9012,-0.8999,-0.8999,-0.8997,-0.8999,-0.9025,-0.903,-0.9011,-0.901,-0.9013,-0.9038,-0.9047,-0.905,-0.9089,-0.9057,-0.9059,-0.906,-0.9061,-0.916,-0.9162,0,0,0,0,0,0,-0.8959,-0.8965,-0.9011,-0.9013,-0.8978,-0.8999,-0.9002,-0.9013,-0.903,-0.9031,-0.9014,-0.9013,-0.9043,-0.9047,-0.9051,-0.9095,-0.9059,-0.9062,-0.9063,-0.9159,-0.9161,-0.9162,0,0,0,0,0,0,-0.8958,-0.8964,-0.901,-0.8989,-0.8994,-0.9001,-0.9014,-0.9015,-0.9023,-0.9032,-0.9034,-0.9022,-0.9043,-0.9047,-0.9077,-0.9096,-0.9063,-0.9065,-0.9158,-0.916,-0.9161,-0.9183,0,0,0,0,0,0,-0.8956,-0.8963,-0.8976,-0.8989,-0.8996,-0.9036,-0.9015,-0.9016,-0.9027,-0.9025,-0.904,-0.9041,-0.9042,-0.9074,-0.908,-0.9098,-0.9067,-0.9156,-0.9158,-0.9161,-0.9181,-0.9185,-0.9189,0,0,0,0,0,-0.8954,-0.8982,-0.8977,-0.8983,-0.9012,-0.9037,-0.9041,-0.9041,-0.9028,-0.9042,-0.9048,-0.9041,-0.9093,-0.9077,-0.9084,-0.9103,-0.9155,-0.9158,-0.9161,-0.9179,-0.9184,-0.9189,0,0,0,0,0,0,-0.8971,-0.8983,-0.8978,-0.9011,-0.9023,-0.9035,-0.9052,-0.9047,-0.9063,-0.9061,-0.906,-0.9064,-0.9095,-0.9102,-0.9085,-0.914,-0.9122,-0.9126,-0.9134,-0.9139,-0.9144,-0.9142,-0.9068,0,0,0,0,0,-0.8979,-0.8997,-0.9007,-0.9035,-0.9041,-0.9045,-0.9056,-0.9055,-0.9068,-0.9073,-0.9081,-0.9095,-0.9114,-0.9127,-0.9145,-0.9182,-0.9185,-0.9198,-0.9203,-0.9206,-0.921,-0.9231,-0.9237,-0.9171,-0.9171,-0.9171,0,0,-0.8995,-0.9003,-0.9015,-0.9038,-0.9048,-0.9068,-0.905,-0.9072,-0.9087,-0.9077,-0.9106,-0.9112,-0.9127,-0.9161,-0.9176,-0.9168,-0.9229,-0.921,-0.9212,-0.9214,-0.9234,-0.924,-0.9246,-0.9173,-0.9173,-0.9172,0,0,-0.9034,-0.9042,-0.9066,-0.9076,-0.909,-0.9093,-0.9099,-0.9112,-0.9116,-0.9145,-0.9138,-0.9156,-0.9189,-0.9201,-0.9211,-0.9255,-0.925,-0.9261,-0.9284,-0.9304,-0.931,-0.9314,-0.9331,-0.9337,-0.9265,-0.9265,-0.9265,0,-0.9052,-0.9081,-0.908,-0.9102,-0.9113,-0.9104,-0.913,-0.9139,-0.9159,-0.9167,-0.9157,-0.9199,-0.9209,-0.9245,-0.9256,-0.9265,-0.9272,-0.926,-0.9309,-0.9313,-0.9318,-0.9334,-0.934,-0.9266,-0.9266,-0.9266,-0.9266,0,-0.9103,-0.9124,-0.9142,-0.9161,-0.9174,-0.9197,-0.92,-0.9214,-0.9212,-0.9216,-0.9246,-0.9257,-0.9278,-0.9287,-0.9285,-0.9323,-0.9318,-0.9308,-0.9291,-0.9325,-0.934,-0.9347,-0.9268,-0.9268,-0.9267,-0.9267,0,0,-0.9154,-0.9172,-0.9179,-0.9188,-0.9203,-0.9219,-0.9243,-0.9263,-0.9275,-0.9289,-0.931,-0.9339,-0.933,-0.9342,-0.9341,-0.9359,-0.9395,-0.9348,-0.9348,-0.9357,-0.9439,-0.9446,-0.9453,-0.9391,-0.9392,-0.9393,-0.9438,0,-0.9195,-0.9236,-0.9236,-0.9274,-0.9294,-0.9286,-0.9307,-0.932,-0.9324,-0.9342,-0.9348,-0.9369,-0.9355,-0.9363,-0.938,-0.9387,-0.9411,-0.9383,-0.9411,-0.9412,-0.9408,-0.9461,-0.9469,-0.9511,-0.9444,-0.9445,-0.9445,0,-0.9248,-0.9264,-0.9304,-0.9317,-0.9325,-0.9344,-0.9363,-0.938,-0.9394,-0.9396,-0.941,-0.9407,-0.9432,-0.9414,-0.9449,-0.943,-0.9442,-0.9447,-0.9449,-0.9452,-0.9431,-0.9466,-0.9524,-0.953,-0.9454,-0.9454,-0.9453,0,-0.9282,-0.9313,-0.9341,-0.9349,-0.9365,-0.9379,-0.9386,-0.9399,-0.9412,-0.9428,-0.9436,-0.9456,-0.9467,-0.9483,-0.9486,-0.9472,-0.9522,-0.9503,-0.9526,-0.9526,-0.9537,-0.9536,-0.9598,-0.9543,-0.9543,-0.9543,-0.9543,0,-0.9328,-0.9353,-0.9357,-0.9375,-0.9403,-0.9403,-0.9431,-0.9438,-0.9449,-0.9469,-0.9464,-0.9482,-0.9485,-0.9504,-0.9507,-0.9537,-0.9541,-0.9545,-0.9545,-0.9546,-0.9545,-0.9553,-0.9551,-0.9545,-0.9544,-0.9544,-0.9544,0,-0.9371,-0.9374,-0.9405,-0.9418,-0.9421,-0.9442,-0.9453,-0.9471,-0.9475,-0.95,-0.9505,-0.9513,-0.9536,-0.954,-0.9567,-0.9569,-0.9605,-0.9602,-0.96,-0.9599,-0.9622,-0.962,-0.9691,-0.9701,-0.9639,-0.964,-0.964,0,-0.94,-0.942,-0.9434,-0.9447,-0.9455,-0.9475,-0.9487,-0.9488,-0.9502,-0.952,-0.9535,-0.9557,-0.9575,-0.9612,-0.962,-0.9641,-0.9639,-0.9663,-0.9642,-0.9642,-0.9641,-0.964,-0.9642,-0.9667,-0.9668,-0.9668,-0.9669,0,-0.9453,-0.9453,-0.9471,-0.949,-0.9505,-0.952,-0.9534,-0.9545,-0.9548,-0.9563,-0.9586,-0.96,-0.9627,-0.965,-0.9671,-0.968,-0.9675,-0.9675,-0.9681,-0.9682,-0.968,-0.9682,-0.9611,-0.9673,-0.9673,-0.9673,-0.9672,-0.9672,-0.949,-0.9507,-0.952,-0.9541,-0.9551,-0.9565,-0.9582,-0.9589,-0.9607,-0.963,-0.9629,-0.9655,-0.967,-0.9697,-0.9707,-0.9728,-0.9721,-0.973,-0.9732,-0.9734,-0.9737,-0.9677,-0.9732,-0.9732,-0.9731,-0.9731,-0.9731,0,-0.9543,-0.9551,-0.9569,-0.9589,-0.9606,-0.9599,-0.9615,-0.9629,-0.9651,-0.9665,-0.9683,-0.971,-0.9732,-0.9742,-0.9764,-0.9778,-0.9777,-0.9784,-0.9784,-0.9786,-0.9742,-0.9734,-0.9785,-0.9785,-0.9785,-0.9785,-0.9785,-0.9785,-0.9572,-0.9601,-0.9603,-0.9638,-0.9646,-0.967,-0.968,-0.9693,-0.9704,-0.9734,-0.9752,-0.9758,-0.9771,-0.9794,-0.9814,-0.9817,-0.9826,-0.9834,-0.9836,-0.9794,-0.9789,-0.9784,-0.9777,-0.9836,-0.9836,-0.9878,-0.9878,-0.9879]}]]